Weather WX

World > North America > United States > Ohio

Ink, Ohio Regional Weather

Lat: 41.12N, Lon: 83.18W
Wx Zone: OHZ018
Feedback

Ink, OH Regional Weather

Expires:201906180200;;655250
ASUS41 KCLE 180112
RWRCLE
OHIO REGIONAL WEATHER ROUNDUP
NATIONAL WEATHER SERVICE WILMINGTON, OH
900 PM EDT MON JUN 17 2019

NOTE: "FAIR" INDICATES FEW OR NO CLOUDS BELOW 12,000 FEET WITH NO
SIGNIFICANT WEATHER AND/OR OBSTRUCTIONS TO VISIBILITY.


OHZ001>008-015>018-024>027-034-035-043-044-180200-
   NORTHWEST OHIO
  
CITY           SKY/WX    TMP DP  RH WIND       PRES   REMARKS
DEFIANCE       CLOUDY    70  64  81 CALM      29.97S                  
FINDLAY        FAIR      70  65  84 E6        29.96S                  
TOLEDO EXPRESS MOCLDY    68  57  68 E5        29.98R                  
TOLEDO EXEC    CLOUDY    66  60  81 E6        29.98S                  
LIMA           LGT RAIN  69  66  90 NE5       29.96S FOG              
$$
 

SKY/WX - Weather  TMP - Temperature  DP - Dew Point  RH - Relative Humidity
WIND - Wind Direction/Speed PRES - Barometric Pressure VSB - Visibility
WCI - Wind Chill Index E13G22 Wind - East Wind 13 mph/Gusts of 22 mph